Location: Key Biscayne
(25.6930°N, 80.1630°W)
Time: 09:05:19
(UTC-05:00)

N. Korean satellite - Pass Details

Date: 18 November 2017
Orbit: 460 x 515 km, 97.2° (Epoch: 18 November)

Event Time Altitude Azimuth Distance (km) Brightness Sun altitude
Rises 18:41:46 0° 176° (S) 2,469 10.3 -16.1°
Reaches altitude 10° 18:43:49 10° 180° (S) 1,601 9.4 -16.5°
Maximum altitude 18:47:11 57° 260° (W) 549 7.1 -17.2°
Drops below altitude 10° 18:50:38 10° 340° (NNW) 1,627 9.3 -18.0°
Sets 18:52:43 0° 344° (NNW) 2,514 10.2 -18.4°
